Jefferson City, MO

8:38 AM CDT on March 30, 2017 (GMT -0500)
Jefferson City Memorial

Weather History for KJEF - July, 2013

Change the Weather History Date:

Saturday, July 20, 2013

  Actual Average Record
Temperature  
Mean Temperature 80 °F -  
Max Temperature 87 °F 92 °F 111 °F (1934)
Min Temperature 73 °F 68 °F 56 °F (1947)
Cooling Degree Days 14    
Growing Degree Days 30 (Base 50)    
Moisture  
Dew Point 69 °F    
Average Humidity 72    
Maximum Humidity 87    
Minimum Humidity 54    
Precipitation  
Precipitation 0.93 in - - ()
Sea Level Pressure  
Sea Level Pressure 29.88 in    
Wind  
Wind Speed 4 mph (NW)    
Max Wind Speed 22 mph    
Max Gust Speed 43 mph    
Visibility 8 miles    
Events Rain , Thunderstorm    
Averages and records for this station are not official NWS values.
T = Trace of Precipitation, MM = Missing Value Source: NWS Daily Summary

Daily Weather History Graph

Daily Weather History Graph

Search for Another Location

Airport or City:

Trip Planner

Search our weather history database for the weather conditions in past years. The results will help you decide how hot, cold, wet, or windy it might be!

Date:

Astronomy

Jul. 20, 2013 Rise Set
Actual Time 6:00 AM CDT 8:29 PM CDT
Civil Twilight 5:29 AM CDT 8:59 PM CDT
Nautical Twilight 4:52 AM CDT 9:37 PM CDT
Astronomical Twilight 4:10 AM CDT 10:19 PM CDT
Moon 6:33 PM CDT (7/20) 3:40 AM CDT (7/20)
Length of Visible Light 15h 29m
Length of Day
14h 28m
Waxing Gibbous, 94% of the Moon is Illuminated
Jul 20
Waxing Gibbous
Jul 22
Full
Jul 29
Last Quarter
Aug 6
New
Aug 14
First Quarter

Hourly Weather History & Observations

Time (CDT) Temp. Heat Index Dew Point Humidity Pressure Visibility Wind Dir Wind Speed Gust Speed Precip Events Conditions
12:53 AM 79.0 °F - 66.9 °F 66% 29.87 in 10.0 mi Variable 3.5 mph - N/A   Clear
1:53 AM 79.0 °F - 66.0 °F 64% 29.86 in 10.0 mi SSW 3.5 mph - N/A   Clear
2:53 AM 78.1 °F - 66.0 °F 66% 29.85 in 10.0 mi Calm Calm - N/A   Clear
3:53 AM 75.9 °F - 66.0 °F 71% 29.84 in 10.0 mi Variable 3.5 mph - N/A   Clear
4:53 AM 75.9 °F - 66.9 °F 74% 29.84 in 10.0 mi SE 3.5 mph - N/A   Partly Cloudy
5:53 AM 75.0 °F - 66.9 °F 76% 29.85 in 10.0 mi Calm Calm - N/A   Mostly Cloudy
6:03 AM 75.2 °F - 66.2 °F 73% 29.90 in 1.8 mi Calm Calm - N/A   Haze
6:11 AM 75.2 °F - 66.2 °F 73% 29.90 in 10.0 mi Calm Calm - N/A   Mostly Cloudy
6:53 AM 75.0 °F - 66.9 °F 76% 29.85 in 10.0 mi Calm Calm - N/A   Mostly Cloudy
7:53 AM 79.0 °F - 68.0 °F 69% 29.85 in 10.0 mi West 4.6 mph - N/A   Scattered Clouds
8:53 AM 82.0 °F 84.9 °F 68.0 °F 62% 29.86 in 10.0 mi West 8.1 mph - N/A   Partly Cloudy
9:53 AM 86.0 °F 90.7 °F 70.0 °F 59% 29.85 in 10.0 mi WNW 4.6 mph - N/A   Clear
10:43 AM 84.2 °F 88.4 °F 69.8 °F 62% 29.91 in 10.0 mi NW 6.9 mph - N/A Thunderstorm Overcast
10:53 AM 82.0 °F 85.9 °F 70.0 °F 67% 29.87 in 10.0 mi NNW 6.9 mph - 0.00 in Rain , Thunderstorm Light Thunderstorms and Rain
11:10 AM 78.8 °F - 69.8 °F 74% 29.92 in 1.8 mi NNE 8.1 mph - 0.01 in Rain , Thunderstorm Heavy Rain
11:19 AM 77.0 °F - 71.6 °F 83% 29.92 in 1.8 mi NNE 8.1 mph - 0.04 in Rain , Thunderstorm Heavy Thunderstorms and Rain
11:26 AM 77.0 °F - 71.6 °F 83% 29.93 in 3.0 mi North 6.9 mph - 0.06 in Rain , Thunderstorm Light Thunderstorms and Rain
11:53 AM 75.9 °F - 70.0 °F 82% 29.91 in 3.0 mi West 10.4 mph - 0.09 in Rain , Thunderstorm Heavy Thunderstorms and Rain
12:08 PM 73.4 °F - 68.0 °F 83% 29.96 in 1.2 mi WNW 21.9 mph 42.6 mph 0.01 in Rain , Thunderstorm Heavy Thunderstorms and Rain
12:13 PM 78.8 °F - 64.4 °F 61% 29.95 in 0.2 mi SSE 15.0 mph 42.6 mph 0.01 in Rain , Thunderstorm Heavy Thunderstorms and Rain
12:21 PM 80.6 °F 81.8 °F 62.6 °F 54% 29.94 in 0.5 mi Variable 5.8 mph 34.5 mph 0.04 in Rain , Thunderstorm Heavy Thunderstorms and Rain
12:24 PM 77.0 °F - 64.4 °F 65% 29.93 in 1.0 mi South 13.8 mph 34.5 mph 0.05 in Rain , Thunderstorm Heavy Thunderstorms and Rain
12:30 PM 73.4 °F - 68.0 °F 83% 29.94 in 3.0 mi Variable 4.6 mph 16.1 mph 0.07 in Rain , Thunderstorm Thunderstorms and Rain
12:53 PM 73.9 °F - 70.0 °F 87% 29.91 in 10.0 mi WNW 6.9 mph - 0.14 in Rain , Thunderstorm Light Thunderstorms and Rain
1:12 PM 75.2 °F - 69.8 °F 83% 29.94 in 10.0 mi Calm Calm - 0.06 in Rain Light Rain
1:53 PM 75.9 °F - 70.0 °F 82% 29.89 in 10.0 mi NW 3.5 mph - 0.19 in Rain Light Rain
2:53 PM 77.0 °F - 72.0 °F 84% 29.86 in 10.0 mi NW 4.6 mph - 0.12 in   Mostly Cloudy
3:53 PM 81.0 °F 85.2 °F 72.0 °F 74% 29.81 in 10.0 mi NW 5.8 mph - 0.09 in   Clear
4:53 PM 86.0 °F 92.2 °F 72.0 °F 63% 29.82 in 10.0 mi NW 5.8 mph - 0.15 in   Clear
5:53 PM 82.9 °F 89.4 °F 73.9 °F 74% 29.81 in 10.0 mi Calm Calm - 0.10 in   Clear
6:53 PM 82.9 °F 90.2 °F 75.0 °F 77% 29.82 in 10.0 mi NW 4.6 mph - 0.05 in   Clear
7:53 PM 82.0 °F 88.6 °F 75.0 °F 79% 29.85 in 10.0 mi Calm Calm - N/A   Mostly Cloudy
8:53 PM 82.0 °F 85.9 °F 70.0 °F 67% 29.85 in 10.0 mi East 5.8 mph - N/A   Clear
9:53 PM 80.1 °F 82.9 °F 69.1 °F 69% 29.86 in 10.0 mi ESE 6.9 mph - N/A   Partly Cloudy
10:53 PM 75.9 °F - 64.9 °F 69% 29.89 in 10.0 mi Calm Calm - N/A   Scattered Clouds
11:53 PM 73.9 °F - 66.0 °F 76% 29.88 in 10.0 mi SE 5.8 mph - N/A   Clear